Location: East Irvine
(33.6759°N, 117.7598°W)
Time: 01:59:48
(UTC+00:00)

Cosmos 2082 Rocket - Pass Details

Date: 15 November 2025
Orbit: 834 x 851 km, 71.0° (Epoch: 07 December)

Event Time Altitude Azimuth Distance (km) Brightness Sun altitude
Rises 01:21:02 0° 2° (N) 3,384 5.1 -7.2°
Reaches altitude 10° 01:26:09 10° 42° (NE) 2,446 4.1 -8.2°
Maximum altitude 01:27:08 10° 53° (NE) 2,415 4.0 -8.4°
Drops below altitude 10° 01:28:06 10° 63° (ENE) 2,444 4.0 -8.6°
Enters shadow 01:28:08 10° 63° (ENE) 2,446 4.0 -8.6°
